Terminal Aerodrome Forecast
Issued by NWS Grand Forks, ND

Home | Current Version | Previous Version | Text Only | Print | Product List | Glossary Off
Versions: 1 2 3 4 5 6 7 8 9 10 11 12 13 14 15 16 17

000
FTUS43 KFGF 282000 AAA
TAFFAR
TAF AMD
KFAR 282001Z 2820/0118 20013G21KT P6SM BKN120
     FM010200 22010KT P6SM BKN100
     FM011200 24007KT P6SM BKN080
     FM011500 26008KT P6SM BKN050=

USA.gov is the U.S. government's official web portal to all federal, state and local government web resources and services.